Date,TemperatureHighF,TemperatureAvgF,TemperatureLowF,DewpointHighF,DewpointAvgF,DewpointLowF,HumidityHigh,HumidityAvg,HumidityLow,PressureMaxIn,PressureMinIn,WindSpeedMaxMPH,WindSpeedAvgMPH,GustSpeedMaxMPH,PrecipitationSumIn
2012-1-1,52.2,43.9,26.6,14.1,10.7,7.7,49,27,18,30.69,30.41,11,0,11,0.00
2012-1-2,54.4,40.9,12.9,16.3,13.3,5.9,75,35,20,30.86,30.54,10,1,11,0.00
2012-1-3,66.1,54.1,20.5,31.3,26.2,13.5,78,36,22,30.64,30.06,22,3,26,0.00
2012-1-4,55.0,48.3,0.0,21.1,18.6,0.0,54,31,22,30.41,30.19,19,5,22,0.00
2012-1-5,61.3,47.7,14.8,20.0,10.0,2.4,81,26,10,30.52,30.16,12,1,13,0.00
2012-1-6,64.7,52.8,29.3,9.6,4.4,-4.9,37,15,6,30.10,29.78,20,3,22,0.00
2012-1-7,62.3,50.8,20.5,25.6,14.7,7.8,73,27,13,30.17,29.86,17,1,19,0.00
2012-1-8,62.3,50.4,31.5,29.6,19.4,12.4,62,32,15,30.07,29.80,13,2,16,0.00
2012-1-9,35.9,32.9,31.0,28.6,24.3,0.0,82,70,66,30.24,30.12,17,4,17,0.04
2012-1-10,50.7,39.2,25.7,30.5,22.7,9.1,80,54,27,30.24,29.97,21,6,24,0.00
2012-1-11,62.9,57.3,31.8,27.1,18.2,13.4,60,23,16,29.98,29.78,21,5,21,0.00
2012-1-12,39.5,32.5,23.5,20.8,15.8,10.9,87,53,34,30.33,30.20,7,0,8,0.00
2012-1-13,53.5,41.1,24.8,22.3,12.1,0.6,60,32,14,30.36,30.09,8,0,10,0.00
2012-1-14,61.3,53.8,10.4,3.8,-3.1,-11.2,53,11,5,30.53,30.27,14,2,19,0.00
2012-1-15,66.0,57.4,37.5,31.4,25.5,11.7,54,30,21,30.30,29.95,25,3,27,0.00
2012-1-16,68.6,62.4,55.0,29.7,26.9,23.8,35,26,20,29.99,29.76,30,6,31,0.00
2012-1-17,64.2,55.2,33.1,33.6,22.4,14.8,61,30,16,30.20,29.94,16,1,19,0.00
2012-1-18,66.1,57.2,20.2,27.0,14.4,3.5,74,21,10,30.35,29.90,25,2,25,0.00
2012-1-19,72.7,64.4,35.9,18.0,13.1,8.1,37,14,10,30.10,29.73,18,2,19,0.00
2012-1-20,70.6,62.6,41.2,13.2,7.8,-0.0,18,11,8,29.90,29.68,26,7,30,0.00
2012-1-21,69.3,62.8,50.2,11.5,5.6,0.6,17,10,7,30.02,29.72,20,3,20,0.00
2012-1-22,64.7,56.7,45.2,10.2,4.2,-0.8,20,12,9,29.91,29.60,46,9,46,0.00
2012-1-23,66.3,55.3,28.4,8.8,2.9,-12.1,35,13,5,30.12,29.74,19,2,19,0.00
2012-1-24,62.6,53.1,29.7,28.4,15.0,2.8,42,24,12,29.90,29.70,19,3,19,0.00
2012-1-25,36.6,33.9,27.6,33.4,29.6,24.5,91,84,73,30.14,29.98,17,3,18,0.10
2012-1-26,57.3,49.6,31.5,26.0,21.3,15.2,72,36,22,30.19,30.01,19,2,19,0.00
2012-1-27,66.8,54.7,36.9,21.0,18.4,12.3,51,27,13,30.11,29.80,18,2,18,0.00
2012-1-28,47.9,40.3,27.3,22.6,19.4,14.4,69,44,33,30.47,30.26,14,2,18,0.00
2012-1-29,62.9,51.4,17.7,33.8,26.6,13.4,87,41,21,30.50,30.21,11,1,12,0.00
2012-1-30,65.8,53.2,23.0,33.1,27.3,15.8,88,39,20,30.28,29.96,19,2,20,0.00
2012-1-31,67.1,56.2,25.0,37.8,23.9,12.8,91,33,14,30.23,29.96,17,1,18,0.00
2012-2-1,66.9,54.5,23.3,26.8,17.5,6.0,73,26,9,30.31,30.01,14,1,16,0.00
2012-2-2,70.8,59.7,37.5,32.3,15.9,1.4,45,20,9,29.94,29.66,26,6,32,0.00
2012-2-3,65.0,49.3,22.1,13.6,10.0,6.3,62,23,11,30.11,29.90,17,0,19,0.00
2012-2-4,44.8,38.6,31.0,26.3,20.2,17.8,79,48,36,30.31,30.16,13,2,17,0.00
2012-2-5,41.5,36.4,30.0,24.3,19.8,15.8,78,52,36,30.39,30.24,13,2,13,0.00
2012-2-6,56.9,47.5,26.0,28.0,24.7,16.2,67,42,29,30.31,29.94,17,2,17,0.00
2012-2-7,55.4,44.2,0.0,29.7,25.0,0.0,82,44,32,30.45,30.09,17,4,18,0.00
2012-2-8,53.3,42.7,30.4,31.6,28.2,22.7,77,58,40,30.39,30.12,10,0,12,0.00
2012-2-9,63.9,53.1,29.4,37.9,33.2,25.9,91,49,31,30.18,29.87,19,2,19,0.00
2012-2-10,58.7,44.5,31.5,30.9,21.4,11.5,81,46,16,30.25,30.05,13,1,16,0.00
2012-2-11,57.3,44.1,21.3,27.6,24.8,15.2,83,49,27,30.36,30.18,14,2,16,0.00
2012-2-12,38.5,34.3,27.6,35.9,29.5,19.0,92,83,67,30.24,29.97,10,0,12,0.07
2012-2-13,58.6,51.8,33.8,32.8,24.4,18.2,71,36,23,29.94,29.72,26,4,31,0.00
2012-2-14,65.0,57.3,20.5,41.5,26.2,16.7,88,33,17,30.10,29.71,30,4,30,0.00
2012-2-15,58.0,48.7,27.9,27.1,15.3,2.5,75,30,11,30.12,29.87,26,3,26,0.00
2012-2-16,60.9,49.4,23.0,34.1,27.3,12.0,74,44,26,30.24,29.95,14,2,14,0.00
2012-2-17,53.2,47.2,39.2,39.7,36.8,32.8,93,68,54,29.99,29.82,11,1,13,0.00
2012-2-19,61.6,53.6,47.3,26.1,20.2,8.2,43,28,13,29.89,29.71,17,4,21,0.00
2012-2-20,60.7,52.5,33.5,15.0,10.1,3.9,30,19,12,30.08,29.81,30,5,30,0.00
2012-2-21,69.1,55.7,16.2,14.0,4.0,-6.9,57,15,5,30.29,29.96,20,2,27,0.00
2012-2-22,68.8,63.2,51.3,7.7,0.9,-9.5,13,8,6,29.95,29.66,29,9,30,0.00
2012-2-23,73.0,65.4,47.7,26.6,21.8,15.4,28,19,12,29.67,29.42,34,10,40,0.00
2012-2-24,51.4,41.5,26.7,14.3,11.2,6.7,47,29,21,30.35,30.13,14,2,14,0.00
2012-2-25,60.7,48.8,16.4,24.5,17.8,4.7,64,31,18,30.42,29.94,21,3,26,0.00
2012-2-26,72.5,63.0,37.0,32.4,23.8,12.0,65,24,13,29.95,29.71,16,2,25,0.00
2012-2-27,67.1,56.4,30.0,31.8,26.6,19.3,65,34,21,30.09,29.88,13,2,17,0.00
2012-2-28,76.3,69.2,57.0,33.2,18.6,-10.5,39,16,4,29.84,29.62,30,8,31,0.00
2012-3-11,64.8,59.9,55.1,12.8,10.3,7.7,17,14,11,29.95,29.84,17,3,26,0.00
2012-3-12,76.1,64.0,22.2,13.2,5.9,-2.4,42,12,5,30.13,29.95,13,1,17,0.00
2012-3-13,79.0,68.4,32.8,32.8,20.1,9.0,50,18,8,30.06,29.78,16,2,18,0.00
2012-3-14,77.0,64.7,35.6,39.2,25.3,10.6,79,28,10,30.13,29.85,12,1,13,0.00
2012-3-15,78.6,69.8,38.6,23.1,12.4,1.3,47,11,6,30.01,29.87,12,1,14,0.00
2012-3-16,80.7,70.7,38.5,51.2,37.3,23.3,76,33,13,29.97,29.69,21,3,22,0.00
2012-3-17,79.6,68.4,34.1,37.5,23.3,16.7,88,25,11,29.89,29.64,27,5,27,0.00
2012-3-18,74.6,70.4,63.7,28.0,21.0,13.6,25,16,11,29.61,29.41,36,16,39,0.00
2012-3-19,60.9,47.8,42.8,25.5,21.9,18.8,50,36,22,29.67,29.44,14,4,28,0.00
2012-3-20,46.2,40.6,31.2,28.8,16.0,8.0,77,38,23,29.94,29.76,29,10,31,0.18
2012-3-21,60.2,48.8,36.5,18.5,10.2,0.6,44,24,9,29.96,29.75,25,6,26,0.00
2012-3-22,73.2,55.0,12.3,20.7,10.3,-20.2,34,18,10,29.94,29.71,21,2,25,0.00
2012-3-23,77.9,59.7,48.0,15.0,11.8,9.5,22,16,8,29.85,29.78,5,0,5,0.00
2012-3-24,85.1,60.0,31.2,20.5,12.9,7.0,41,19,6,30.01,29.74,14,1,17,0.00
2012-3-25,67.8,46.7,38.0,41.1,19.8,10.6,54,35,20,29.95,29.66,8,0,12,0.00
2012-3-26,83.0,65.2,47.3,54.6,36.9,24.9,80,41,14,29.78,29.61,17,1,18,0.00
2012-3-27,81.8,59.0,42.8,51.2,43.1,24.9,89,61,16,29.90,29.70,28,1,28,0.09
2012-3-28,49.2,42.6,38.3,42.6,38.7,35.6,91,86,77,29.92,29.79,0,0,0,0.00
2012-3-29,76.5,69.3,62.3,43.3,33.6,27.2,49,28,17,29.81,29.72,22,4,24,0.03
2012-4-5,81.8,70.2,50.2,11.3,5.5,-1.8,18,9,4,29.73,29.57,16,1,19,0.00
2012-4-6,84.1,59.7,39.9,28.4,11.3,0.6,41,18,4,29.80,29.66,17,1,18,0.00
2012-4-7,79.4,62.0,43.3,47.3,27.6,7.8,64,30,10,29.99,29.73,19,2,21,0.00
2012-4-8,74.7,61.4,46.2,49.5,46.2,41.0,85,60,34,30.10,29.92,13,2,16,0.00
2012-4-9,81.4,68.9,49.4,54.0,47.1,40.8,85,50,24,29.99,29.74,18,2,22,0.00
2012-4-10,80.5,70.0,48.2,54.2,47.7,40.2,93,49,25,29.93,29.74,30,2,30,0.78
2012-4-11,79.8,73.3,58.6,55.4,50.2,43.0,84,47,28,29.79,29.60,25,3,25,0.00
2012-4-12,80.9,70.8,53.6,54.2,35.4,18.3,94,36,10,29.76,29.60,24,2,29,0.01
2012-4-13,81.4,74.4,46.0,28.4,16.9,2.9,50,12,5,29.78,29.45,25,4,26,0.00
2012-4-14,82.6,74.9,60.5,24.2,8.5,-2.7,18,8,4,29.53,29.28,40,11,40,0.00
2012-4-15,65.2,57.8,43.3,19.2,10.2,0.5,32,16,8,29.88,29.67,28,7,31,0.00
2012-4-16,73.3,62.9,36.2,19.8,13.5,5.6,44,16,8,30.07,29.93,22,1,26,0.00
2012-4-17,76.0,67.7,32.2,26.7,18.9,10.3,61,17,9,30.19,29.87,17,2,17,0.00
2012-4-18,84.7,76.7,39.9,33.8,27.0,14.6,58,17,8,29.99,29.66,21,3,30,0.00
2012-4-19,85.1,77.2,58.6,32.6,18.5,10.0,33,12,8,29.70,29.51,20,4,22,0.00
2012-4-20,70.8,65.7,56.0,44.5,36.5,28.9,63,35,24,29.94,29.69,21,4,21,0.00
2012-4-21,84.0,71.3,35.8,35.7,28.0,21.0,72,24,10,30.02,29.75,20,2,21,0.00
2012-4-22,85.9,75.0,41.6,37.5,28.7,22.4,57,20,11,29.95,29.76,31,3,37,0.00
2012-4-23,83.8,71.4,45.1,36.8,31.2,25.9,58,24,13,29.98,29.76,17,2,18,0.00
2012-4-24,87.2,75.9,45.4,37.8,31.2,23.1,64,23,12,29.84,29.63,24,2,25,0.00
2012-4-25,91.6,82.4,46.2,35.5,25.5,15.9,52,14,7,29.76,29.58,25,2,27,0.00
2012-4-26,88.6,80.5,56.5,26.8,22.1,15.2,26,12,7,29.75,29.57,19,1,19,0.00
2012-4-27,68.9,64.2,61.6,27.4,24.6,22.3,24,22,17,29.62,29.51,14,4,18,0.00
2012-4-29,84.9,81.3,76.3,33.3,30.2,24.6,20,16,12,29.64,29.59,16,1,16,0.00
2012-4-30,89.9,78.3,48.2,57.2,43.7,30.8,83,33,13,29.77,29.58,22,3,22,0.00
2012-5-1,89.9,80.5,49.4,47.0,31.5,21.4,76,19,10,29.71,29.48,21,3,24,0.00
2012-5-2,87.8,79.6,51.1,46.9,16.5,4.9,80,12,5,29.67,29.51,21,4,24,0.00
2012-5-3,87.2,80.2,56.0,54.4,16.9,9.4,53,11,6,29.77,29.60,17,2,17,0.00
2012-5-4,49.6,48.5,48.0,40.6,40.1,39.6,74,73,71,29.78,29.77,0,0,0,0.00
2012-5-7,79.4,72.8,64.7,54.8,40.6,33.5,70,34,20,29.69,29.56,19,2,19,0.00
2012-5-8,59.0,54.5,50.4,53.5,51.2,47.6,94,89,79,29.96,29.77,11,1,13,0.46
2012-5-9,58.1,55.3,48.0,51.3,49.8,46.1,93,82,73,30.00,29.81,12,1,14,0.08
2012-5-10,67.1,58.3,47.9,48.7,42.5,29.4,90,58,27,29.83,29.63,21,4,24,0.17
2012-5-11,71.5,64.7,48.6,50.2,45.7,39.6,88,51,34,29.89,29.72,20,3,20,0.15
2012-5-12,71.8,65.7,46.4,49.1,42.0,37.4,93,43,32,30.06,29.96,13,2,16,0.08
2012-5-13,76.3,68.1,46.0,51.2,47.4,43.2,91,49,36,30.10,29.84,14,1,14,0.01
2012-5-14,67.6,57.0,48.3,51.6,45.8,40.5,84,67,50,30.08,29.89,20,3,21,0.15
2012-5-15,69.1,62.5,45.5,47.9,44.6,40.7,84,53,39,30.09,29.96,12,1,14,0.00
2012-5-16,77.6,67.8,39.8,49.5,35.5,27.5,94,35,17,30.10,29.83,14,1,15,0.00
2012-5-17,84.3,74.9,45.5,45.8,37.8,30.2,75,28,16,29.90,29.60,14,2,18,0.00
2012-5-18,89.7,81.7,53.8,45.2,31.4,23.9,64,19,10,29.67,29.44,18,2,21,0.00
2012-5-19,89.0,82.7,56.9,50.0,27.1,14.8,69,16,7,29.65,29.50,17,1,20,0.00
2012-5-20,80.7,74.4,51.9,54.7,49.1,38.8,80,42,26,29.83,29.70,16,3,22,0.00
2012-5-21,79.6,68.1,49.4,61.8,52.6,42.8,84,59,38,29.98,29.80,8,0,10,0.07
2012-5-22,91.2,80.3,50.5,56.2,42.3,23.7,90,30,9,29.86,29.58,17,2,24,0.00
2012-5-23,92.5,83.1,51.9,51.1,27.2,15.9,76,17,7,29.62,29.31,27,6,31,0.00
2012-5-24,91.8,84.8,72.5,30.9,26.0,20.1,17,12,8,29.51,29.31,25,4,27,0.00
2012-5-25,92.5,83.0,56.9,42.8,30.9,21.2,48,17,8,29.59,29.50,34,5,35,0.00
2012-5-26,89.9,78.1,61.5,59.9,50.2,42.0,84,40,21,29.66,29.51,25,5,25,0.12
2012-5-27,89.5,78.6,57.5,59.0,43.5,28.3,90,36,13,29.69,29.52,13,1,22,0.01
2012-5-28,93.2,82.6,52.3,49.9,37.3,24.6,69,22,12,29.70,29.56,22,1,28,0.00
2012-5-29,94.3,86.4,49.6,46.9,25.0,11.6,66,14,5,29.78,29.58,18,1,24,0.00
2012-5-30,92.9,83.8,42.9,39.5,15.4,-0.7,56,11,3,29.99,29.45,22,4,26,0.00
2012-5-31,86.5,77.9,49.5,59.6,35.7,7.2,62,26,6,29.68,29.52,22,5,22,0.00
2012-6-1,84.1,74.1,59.0,60.2,53.6,38.8,88,52,21,29.79,29.57,14,2,16,0.00
2012-6-2,91.2,82.7,55.4,57.0,42.2,31.3,87,27,14,29.70,29.51,18,2,18,0.00
2012-6-3,92.1,86.1,71.3,50.0,36.3,26.5,47,17,12,29.62,29.50,27,1,27,0.00
2012-6-4,95.1,88.7,50.1,49.6,25.9,19.9,68,12,7,29.77,29.41,20,4,21,0.00
2012-6-5,86.7,74.3,61.0,62.5,50.8,40.7,70,46,24,29.74,29.52,14,1,14,0.08
2012-6-6,93.4,84.3,49.9,56.0,33.2,20.7,89,20,8,29.80,29.43,17,1,17,0.03
2012-6-7,93.8,82.9,51.7,51.3,36.4,18.6,74,23,7,29.64,29.50,17,2,18,0.00
2012-6-8,87.8,77.5,50.4,55.7,44.8,33.5,80,34,19,29.82,29.51,18,1,19,0.00
2012-6-9,96.8,88.4,70.4,41.1,23.7,16.6,30,10,6,29.61,29.37,19,4,21,0.00
2012-6-10,94.5,90.0,78.1,28.1,23.4,17.5,14,9,7,29.72,29.46,27,4,27,0.00
2012-6-11,95.1,88.4,52.5,44.9,25.4,16.7,38,11,7,29.86,29.57,16,1,16,0.00
2012-6-12,92.3,79.5,57.0,54.2,42.4,35.1,54,29,14,29.91,29.57,18,1,20,0.00
2012-6-13,91.4,80.4,65.8,55.9,49.9,40.1,67,37,19,29.67,29.50,19,3,19,0.00
2012-6-14,95.1,85.3,67.9,51.7,42.4,21.9,53,25,12,29.69,29.44,24,3,26,0.00
2012-6-15,93.4,78.7,63.9,58.5,44.7,34.7,82,33,14,29.73,29.53,19,2,19,0.17
2012-6-16,87.6,80.5,59.8,54.3,46.9,35.4,77,32,19,29.82,29.63,17,2,19,0.00
2012-6-17,89.0,81.4,58.1,58.2,47.6,40.8,85,33,20,29.84,29.57,18,1,18,0.00
2012-6-18,97.8,89.3,58.0,54.5,39.0,24.6,76,19,8,29.60,29.35,20,4,20,0.00
2012-6-19,97.5,92.4,73.5,40.8,25.4,18.6,30,10,7,29.47,29.31,21,4,24,0.00
2012-6-20,97.8,89.5,64.7,55.9,35.4,16.8,64,19,6,29.62,29.41,18,2,20,0.00
2012-6-21,88.2,81.4,55.7,54.8,49.0,43.8,76,34,22,29.87,29.59,21,3,21,0.00
2012-6-22,86.7,79.3,53.9,54.6,48.0,40.1,77,35,23,29.92,29.63,19,3,19,0.00
2012-6-23,89.5,81.3,0.0,51.9,41.6,0.0,80,27,15,29.76,29.60,14,2,17,0.00
2012-6-24,91.6,83.7,52.0,51.4,42.7,35.7,72,25,16,29.87,29.64,13,2,16,0.00
2012-6-25,94.0,85.9,55.7,52.6,40.4,26.5,72,23,9,29.81,29.61,16,2,18,0.00
2012-6-26,67.1,58.0,53.5,47.4,43.7,40.5,64,59,50,29.74,29.71,0,0,0,0.00
2012-6-27,95.6,90.0,82.2,43.2,37.4,32.8,25,16,12,29.66,29.58,16,2,21,0.00
2012-6-28,94.9,87.6,58.7,52.5,43.0,38.2,59,23,15,29.76,29.62,16,2,16,0.00
2012-6-29,95.1,86.6,55.9,49.2,39.7,31.2,62,21,12,29.78,29.55,21,2,21,0.00
2012-6-30,92.5,87.9,79.9,46.9,38.5,30.9,31,18,12,29.58,29.51,17,3,19,0.00
2012-7-1,87.6,79.5,57.0,56.3,49.2,39.2,80,37,19,29.67,29.57,20,2,20,0.00
2012-7-2,85.3,75.8,57.0,62.8,54.1,48.6,90,50,30,29.73,29.64,19,2,20,0.43
2012-7-3,88.2,73.0,63.4,64.2,59.3,52.9,91,66,31,29.79,29.61,18,2,19,0.22
2012-7-4,80.9,72.1,64.3,61.4,59.9,54.8,85,67,44,29.79,29.69,21,2,21,0.03
2012-7-5,77.9,71.0,64.2,59.8,57.0,51.5,82,62,45,29.85,29.73,17,2,19,0.00
2012-7-6,80.7,74.3,66.0,62.6,56.2,50.9,80,55,37,29.88,29.72,21,2,21,0.00
2012-7-7,85.9,79.7,55.1,56.4,46.1,38.2,90,33,20,29.90,29.73,18,2,18,0.00
2012-7-8,87.6,81.8,58.4,58.5,49.2,44.8,83,33,26,29.86,29.70,17,2,17,0.36
2012-7-9,85.1,79.7,60.7,62.9,55.7,50.2,92,45,31,29.84,29.70,17,4,19,0.00
2012-7-10,79.9,73.5,65.0,63.5,58.8,53.8,89,62,42,29.81,29.70,21,3,21,0.28
2012-7-11,77.4,70.7,63.4,62.7,59.7,55.3,93,69,52,29.88,29.76,19,3,20,0.17
2012-7-12,82.8,76.7,62.7,63.1,53.3,42.9,92,47,27,29.84,29.71,16,1,16,0.01
2012-7-13,76.7,73.4,72.0,54.5,53.9,53.2,54,50,44,29.75,29.74,0,0,7,0.01
2012-7-14,86.7,80.3,54.2,58.1,48.8,42.5,91,36,22,29.87,29.70,16,1,16,0.00
2012-7-15,87.2,81.1,56.2,57.5,44.8,36.5,85,30,18,29.93,29.63,12,1,13,0.00
2012-7-16,88.8,81.3,55.9,59.0,47.3,40.1,86,33,19,29.75,29.60,14,2,14,0.00
2012-7-17,84.9,71.9,59.2,63.0,57.6,50.6,86,63,31,29.78,29.65,17,1,22,0.40
2012-7-18,84.0,74.0,55.6,62.8,57.5,50.3,93,58,32,29.90,29.69,25,1,25,0.41
2012-7-19,79.8,74.9,59.2,61.0,55.5,45.3,93,52,35,29.88,29.77,29,2,30,0.00
2012-7-20,81.1,74.3,62.4,65.2,61.1,56.2,90,64,45,29.94,29.79,13,0,13,0.04
2012-7-21,85.7,78.3,55.6,61.7,52.6,43.0,90,45,23,29.94,29.82,12,1,12,0.00
2012-7-22,90.1,84.0,53.5,56.4,44.8,35.8,83,27,18,29.87,29.71,14,1,17,0.00
2012-7-23,87.0,76.7,60.5,61.9,53.7,45.0,78,48,25,29.87,29.74,20,1,22,0.02
2012-7-24,85.1,78.3,66.9,58.8,53.2,47.2,64,42,29,29.83,29.64,13,0,13,0.00
2012-7-25,88.8,83.1,56.9,58.2,50.4,46.4,86,34,25,29.77,29.53,19,1,19,0.00
2012-7-26,83.0,70.5,62.0,63.6,60.5,53.7,91,72,40,29.79,29.61,17,1,21,2.04
2012-7-27,75.6,68.5,62.9,64.5,61.5,58.6,94,79,63,29.91,29.73,12,0,12,0.61
2012-7-28,83.0,77.2,59.3,65.3,58.5,52.1,95,54,35,29.94,29.78,12,1,12,0.01
2012-7-29,82.0,75.8,57.5,64.9,58.9,54.1,94,58,39,29.92,29.87,12,1,14,0.00
2012-7-30,86.3,77.9,56.9,60.6,54.8,46.7,88,48,27,29.86,29.77,13,0,13,0.00
2012-7-31,91.0,81.9,58.0,57.3,52.0,47.2,87,41,23,29.84,29.72,11,0,18,0.00
2012-8-1,92.9,86.4,59.6,60.2,50.3,43.5,84,31,19,29.82,29.59,18,0,19,0.00
2012-8-2,95.1,88.5,58.7,56.6,49.4,42.7,83,28,18,29.75,29.57,22,3,22,0.00
2012-8-3,94.5,87.2,61.0,59.9,48.4,33.1,73,29,12,29.66,29.50,24,2,24,0.00
2012-8-4,92.9,85.4,62.1,59.8,50.6,43.7,76,32,21,29.68,29.56,14,1,18,0.00
2012-8-5,85.3,78.1,58.3,60.6,56.1,51.1,87,49,32,29.96,29.80,20,4,21,0.00
2012-8-6,87.8,81.1,55.9,58.3,52.7,47.4,85,39,27,29.98,29.82,16,2,16,0.00
2012-8-7,90.3,83.1,56.0,60.5,50.8,42.4,86,36,21,29.87,29.74,14,2,18,0.00
2012-8-8,89.9,80.8,64.5,56.7,51.4,45.1,69,38,22,29.84,29.72,17,2,18,0.00
2012-8-9,87.4,80.6,59.9,62.0,53.0,47.3,80,40,26,29.83,29.59,16,3,16,0.00
2012-8-10,89.3,81.5,54.7,64.4,48.9,41.6,92,36,21,29.89,29.58,18,2,18,0.00
2012-8-11,91.4,84.0,55.0,56.4,46.1,39.3,76,29,17,29.97,29.66,18,2,18,0.00
2012-8-12,95.4,87.7,57.5,56.8,44.4,36.4,75,24,14,29.91,29.62,19,2,19,0.00
2012-8-13,87.2,76.9,63.7,61.9,54.0,48.1,80,47,28,29.89,29.70,17,3,19,0.10
2012-8-14,90.5,80.5,61.0,63.1,50.3,40.9,92,40,21,29.86,29.59,12,1,16,0.00
2012-8-15,93.2,84.9,56.5,58.3,49.7,44.0,86,32,19,29.83,29.54,13,1,16,0.00
2012-8-16,89.0,81.2,64.0,60.5,54.3,45.7,87,42,26,29.77,29.59,17,2,18,0.22
2012-8-17,85.9,75.4,65.0,61.8,58.0,50.8,88,57,35,29.82,29.65,19,1,19,0.11
2012-8-18,80.1,68.4,62.6,65.9,61.3,57.4,92,79,48,29.80,29.63,14,1,14,0.48
2012-8-19,80.7,75.9,69.6,61.3,58.1,55.5,69,54,44,29.81,29.70,17,1,17,0.01
2012-8-20,84.0,76.2,55.4,61.9,51.0,39.8,94,45,23,29.96,29.71,12,1,13,0.01
2012-8-21,86.3,78.6,54.2,61.3,55.2,50.7,91,46,31,29.81,29.66,17,1,17,0.01
2012-8-22,84.9,78.5,62.3,56.8,50.9,46.2,80,40,27,29.84,29.69,13,1,14,0.00
2012-8-23,87.0,80.7,66.0,57.5,52.0,46.7,68,38,27,29.79,29.60,18,2,18,0.00
2012-8-24,89.0,78.7,59.8,61.5,54.8,48.6,91,47,26,29.71,29.52,20,2,20,0.25
2012-8-25,86.3,81.8,70.3,60.6,52.7,43.5,71,38,24,29.66,29.52,14,1,16,0.03
2012-8-26,84.7,70.0,59.8,63.1,59.9,50.9,92,73,35,29.84,29.67,32,1,32,0.43
2012-8-27,76.3,67.4,57.0,63.9,60.8,55.0,97,80,54,29.95,29.88,10,0,10,0.04
2012-8-28,79.4,73.5,55.6,62.1,53.4,44.9,92,51,31,29.97,29.78,16,2,17,0.01
2012-8-29,79.2,72.8,57.0,61.8,58.0,53.2,91,61,43,29.87,29.69,14,1,14,0.00
2012-8-30,83.0,75.1,50.7,56.9,42.3,32.8,93,35,19,29.86,29.69,12,1,13,0.01
2012-8-31,85.3,75.7,45.7,52.4,44.6,38.2,91,37,21,30.05,29.75,18,0,18,0.00
2012-9-1,83.2,76.1,72.8,53.3,48.3,40.4,50,39,22,29.83,29.75,1,0,10,0.00
2012-9-2,89.3,82.2,54.5,59.7,50.7,43.2,92,36,21,29.88,29.64,12,0,12,0.00
2012-9-3,91.0,79.4,59.9,62.1,54.2,45.8,88,44,24,29.88,29.64,16,1,18,0.00
2012-9-4,92.1,82.5,58.7,59.4,52.6,48.7,84,38,24,29.80,29.61,21,1,21,0.00
2012-9-5,89.3,78.5,56.9,62.4,56.1,46.7,88,49,27,29.85,29.59,22,1,24,0.33
2012-9-6,88.4,76.1,57.2,61.3,56.8,48.5,92,54,28,29.88,29.65,14,0,16,0.00
2012-9-7,91.0,82.4,55.0,59.1,50.7,41.3,90,37,21,29.85,29.61,20,0,20,0.00
2012-9-8,71.5,65.1,56.9,49.9,43.7,38.0,73,47,33,30.08,29.88,19,6,21,0.00
2012-9-9,80.1,70.5,42.6,46.2,39.1,32.3,89,34,22,30.15,29.94,10,1,13,0.00
2012-9-10,85.3,77.5,45.2,46.3,41.8,37.9,83,30,21,30.06,29.75,12,1,12,0.00
2012-9-11,88.6,79.8,48.6,48.6,42.5,37.7,80,28,19,30.02,29.68,13,1,20,0.00
2012-9-12,85.9,74.9,64.3,58.7,50.7,44.6,70,45,25,29.84,29.66,24,2,24,0.01
2012-9-13,60.9,58.2,55.4,56.9,52.3,48.4,91,81,72,30.14,29.85,15,5,16,0.13
2012-9-14,59.3,56.1,52.6,49.3,48.0,46.4,86,74,63,30.21,30.11,11,3,12,0.00
2012-9-15,60.7,55.5,48.3,51.7,49.5,46.1,92,81,69,30.19,30.04,0,0,0,0.51
2012-9-16,77.4,69.4,-18.8,54.8,42.2,-45.2,95,41,20,30.39,29.79,17,2,17,0.01
2012-9-17,85.5,79.0,48.6,40.3,34.3,24.3,73,21,11,29.79,29.70,18,6,18,0.00
2012-9-18,74.4,69.9,56.3,53.6,50.2,45.6,70,50,42,29.99,29.85,13,2,13,0.00
2012-9-19,82.2,74.0,44.1,57.2,47.2,40.1,95,42,26,30.08,29.87,13,1,13,0.01
2012-9-20,84.3,73.6,44.8,52.5,36.3,24.7,91,31,12,30.01,29.81,11,1,13,0.01
2012-9-21,86.5,76.8,48.6,47.0,36.2,28.9,78,26,14,29.92,29.77,11,0,19,0.00
2012-9-22,85.7,77.0,41.8,39.1,30.4,22.5,80,21,11,30.06,29.90,21,2,21,0.00
2012-9-23,80.1,72.9,40.3,40.9,34.5,29.9,81,26,17,30.11,29.95,14,1,14,0.00
2012-9-24,84.0,76.0,46.0,52.0,40.8,33.8,87,31,19,30.03,29.74,17,2,19,0.00
2012-9-25,87.0,78.1,48.3,53.7,42.4,33.9,87,30,17,29.85,29.65,16,1,17,0.00
2012-9-26,86.3,76.7,51.1,54.2,46.4,38.0,84,37,20,29.82,29.68,24,1,24,0.00
2012-9-27,76.5,69.1,59.9,56.4,53.2,48.6,82,58,40,29.88,29.79,13,1,13,0.00
2012-9-28,62.0,60.5,59.0,59.6,58.2,56.9,94,92,88,29.87,29.75,0,0,0,1.45
2012-9-29,64.0,59.4,54.2,54.7,52.4,50.1,86,78,66,29.93,29.82,0,0,0,0.01
2012-9-30,76.3,68.2,48.3,55.4,49.4,43.0,91,53,33,29.97,29.76,27,2,28,0.11
2012-10-1,73.2,67.8,54.2,51.3,44.4,39.4,80,45,31,29.93,29.84,24,5,26,0.00
2012-10-2,77.2,69.9,42.5,51.5,44.4,31.0,94,43,27,30.06,29.78,22,3,22,0.01
2012-10-3,82.2,66.9,58.1,41.5,35.3,28.3,52,33,14,29.84,29.75,4,0,12,0.00
2012-10-4,82.4,75.3,52.8,47.1,38.7,29.5,77,29,17,29.98,29.86,11,1,12,0.00
2012-10-5,84.9,73.7,41.9,54.7,41.3,33.1,93,39,16,30.12,29.81,14,1,17,0.00
2012-10-6,76.8,67.9,43.1,53.0,50.0,39.5,88,54,39,29.96,29.74,11,2,12,0.00
2012-10-7,69.9,55.5,39.2,47.0,43.0,37.3,95,66,40,30.13,29.85,7,0,9,0.00
2012-10-8,77.0,69.7,37.9,48.6,45.7,36.3,96,44,28,30.12,29.82,13,1,18,0.00
2012-10-9,82.2,71.9,42.8,46.8,37.7,32.0,93,34,17,29.93,29.77,17,1,17,0.00
2012-10-10,74.6,66.4,42.9,49.1,45.9,38.4,87,50,35,30.02,29.88,11,1,12,0.00
2012-10-11,81.1,73.3,51.0,61.9,53.7,49.0,95,53,34,29.95,29.75,14,1,19,0.02
2012-10-12,80.5,73.0,52.8,60.1,57.3,50.0,91,59,45,29.93,29.73,17,2,17,0.01
2012-10-13,78.5,70.8,51.7,57.4,35.8,18.5,89,33,13,29.87,29.70,20,4,20,0.00
2012-10-14,71.3,61.7,48.6,36.4,33.5,29.3,60,36,25,30.09,30.00,13,2,14,0.00
2012-10-15,73.7,66.5,44.3,51.0,45.5,38.2,80,48,33,30.12,29.84,11,1,11,0.00
2012-10-16,76.0,68.5,58.0,53.1,47.5,38.1,78,49,26,29.75,29.58,12,1,13,0.00
2012-10-17,81.1,72.1,62.9,42.6,28.3,23.1,47,20,13,29.66,29.52,24,5,24,0.00
2012-10-18,80.5,69.7,47.9,38.1,30.0,20.2,59,26,12,29.86,29.66,14,2,16,0.00
2012-10-19,83.2,70.7,34.1,38.8,32.6,24.0,81,29,12,30.03,29.76,14,0,14,0.00
2012-10-20,83.8,75.1,39.9,45.3,40.5,33.6,81,31,21,29.89,29.61,18,2,19,0.00
2012-10-21,85.1,77.1,43.3,48.4,38.5,31.1,85,28,16,29.83,29.65,17,1,17,0.00
2012-10-22,75.8,62.8,51.0,37.8,36.4,34.3,58,39,22,29.88,29.74,5,0,5,0.00
2012-10-23,84.9,73.6,42.8,41.0,35.6,29.4,71,28,15,29.92,29.69,14,2,15,0.00
2012-10-24,85.5,74.3,55.4,55.8,42.6,26.3,85,36,18,29.78,29.49,25,3,25,0.00
2012-10-25,75.3,67.5,44.5,35.2,30.4,22.0,64,27,14,29.87,29.66,25,4,25,0.00
2012-10-26,46.1,43.4,33.2,33.8,30.6,28.4,90,61,53,30.26,30.08,13,3,13,0.00
2012-10-27,60.9,47.8,36.3,36.6,25.7,11.7,71,43,31,30.22,29.94,15,0,15,0.00
2012-10-28,70.3,57.0,26.0,39.3,33.9,22.7,91,46,26,30.24,29.98,14,1,14,0.00
2012-10-29,77.7,65.9,25.8,37.1,25.6,16.2,89,27,10,30.26,29.95,18,1,21,0.00
2012-10-30,78.5,64.6,35.2,26.7,15.7,5.5,49,18,6,30.06,29.85,14,3,16,0.00
2012-10-31,79.4,66.7,31.8,28.4,21.2,13.5,52,20,10,30.12,29.86,13,0,13,0.00
2012-11-1,79.2,65.4,28.8,31.9,25.2,18.4,76,26,11,30.15,29.86,12,1,14,0.00
2012-11-2,78.3,68.1,34.0,40.1,31.5,24.4,81,29,14,30.03,29.78,17,1,26,0.00
2012-11-3,72.5,60.4,41.8,49.7,39.5,28.4,90,50,27,30.06,29.79,21,1,21,0.17
2012-11-4,72.3,60.8,34.3,51.0,42.9,32.5,95,55,27,30.20,30.00,10,0,11,0.17
2012-11-5,73.5,62.7,37.2,45.9,28.6,19.7,93,33,14,30.17,30.00,14,1,15,0.01
2012-11-6,77.4,63.2,28.2,38.0,26.0,19.9,90,30,12,30.27,30.00,20,1,20,0.01
2012-11-7,79.2,67.2,30.0,34.1,27.4,21.6,84,26,12,30.24,29.91,13,1,14,0.00
2012-11-8,78.1,68.4,35.0,36.3,30.5,26.5,78,27,17,30.10,29.81,20,2,20,0.00
2012-11-9,77.9,68.4,33.5,39.4,33.6,28.3,85,30,17,30.01,29.65,20,3,20,0.00
2012-11-10,73.5,67.8,58.6,40.0,35.8,27.1,48,31,23,29.66,29.50,32,8,34,0.00
2012-11-11,58.0,48.9,30.0,24.3,15.7,-1.6,45,27,15,30.27,29.79,26,6,26,0.00
2012-11-12,55.4,44.6,14.3,6.8,2.9,-1.4,58,19,10,30.57,30.28,8,0,11,0.00
2012-11-13,62.6,49.2,28.1,23.8,17.9,9.2,62,31,19,30.30,30.05,11,1,12,0.00
2012-11-14,68.3,55.8,19.4,22.6,18.6,12.6,81,26,14,30.44,30.14,11,1,11,0.00
2012-11-15,73.7,58.0,25.6,29.5,24.7,15.0,74,31,12,30.27,30.01,12,0,12,0.00
2012-11-16,64.7,54.7,39.3,28.9,26.1,17.3,59,35,23,30.26,30.01,11,0,12,0.00
2012-11-17,72.8,61.0,30.4,46.7,43.1,23.8,78,53,30,30.26,29.96,20,2,21,0.00
2012-11-18,66.3,59.5,49.5,48.8,46.1,43.8,86,62,48,30.07,29.87,11,0,12,0.00
2012-11-19,72.0,61.4,42.2,45.9,39.8,34.2,88,47,26,30.15,30.00,11,0,14,0.00
2012-11-20,72.0,60.2,30.6,41.6,35.5,27.8,91,42,27,30.28,30.03,12,1,12,0.00
2012-11-21,68.3,56.9,39.8,50.0,44.2,32.5,89,64,41,30.18,29.94,22,2,26,0.03
2012-11-22,73.2,55.8,39.3,46.3,37.7,30.2,91,57,22,30.10,29.77,14,1,17,0.00
2012-11-23,54.1,43.2,27.5,36.4,25.5,18.0,83,51,28,30.47,30.01,16,2,16,0.00
2012-11-24,66.0,43.5,23.5,43.2,30.3,16.4,84,62,37,30.49,30.01,19,1,19,0.00
2012-11-25,71.3,56.6,31.0,42.0,32.6,26.3,93,48,19,30.07,29.75,20,4,24,0.00
2012-11-27,64.3,44.4,34.7,34.3,29.2,23.3,76,56,25,30.48,30.21,1,0,11,0.00
2012-11-28,68.1,57.6,24.5,38.3,31.2,21.2,91,40,24,30.50,30.08,14,1,14,0.00
2012-11-29,71.6,59.1,28.2,37.5,29.3,23.1,85,36,18,30.22,29.97,13,1,16,0.00
2012-11-30,73.9,57.7,24.1,33.0,24.8,18.9,85,33,15,30.24,29.98,19,2,19,0.00
2012-12-1,75.6,62.6,34.4,32.2,26.3,20.9,66,27,14,30.18,29.86,16,2,16,0.00
2012-12-2,75.8,68.5,30.1,35.3,29.2,18.6,74,24,15,30.20,29.90,16,1,18,0.00
2012-12-3,72.3,64.4,40.1,26.3,21.6,14.1,57,20,11,30.00,29.87,20,4,21,0.00
2012-12-4,64.8,53.9,32.4,31.0,27.2,22.0,68,38,24,30.28,30.08,12,1,13,0.00
2012-12-5,68.9,55.8,22.5,32.4,27.9,18.1,87,38,21,30.41,30.00,19,2,19,0.00
2012-12-6,75.1,61.4,27.5,27.3,20.0,16.7,74,22,12,30.01,29.75,13,2,18,0.00
2012-12-7,69.6,55.2,30.3,24.8,19.2,13.7,61,26,14,29.92,29.72,18,2,20,0.00
2012-12-8,66.1,56.8,25.4,27.0,20.1,13.7,66,26,14,30.03,29.78,20,3,21,0.00
2012-12-9,64.5,54.4,33.5,32.9,25.9,19.1,59,34,22,29.90,29.64,22,4,22,0.00
2012-12-10,52.5,37.6,14.1,17.0,10.6,2.3,81,36,18,30.24,29.96,19,3,20,0.00
2012-12-11,54.2,41.8,14.3,6.3,2.3,-4.8,52,21,9,30.34,29.92,19,2,19,0.00
2012-12-12,62.7,49.1,8.6,20.8,12.1,-5.0,56,25,13,30.49,30.06,17,2,17,0.00
2012-12-13,65.0,56.3,27.8,24.7,20.9,16.9,63,26,19,30.26,29.91,18,2,18,0.00
2012-12-14,65.8,54.5,47.7,42.7,35.2,27.0,59,49,26,29.82,29.53,40,8,43,0.00
2012-12-15,61.2,52.2,33.7,28.1,18.8,10.4,65,28,15,29.94,29.79,21,4,26,0.00
2012-12-16,55.4,50.7,42.8,27.3,23.8,20.5,47,35,27,29.89,29.75,31,11,32,0.00
2012-12-17,62.0,50.7,20.8,21.6,14.3,5.5,74,27,12,30.12,29.80,26,6,27,0.00
2012-12-18,72.7,60.6,34.3,13.6,8.0,0.0,28,13,6,29.94,29.58,19,3,19,0.00
2012-12-19,65.2,56.4,38.5,27.5,8.9,-12.3,37,18,5,29.97,29.45,39,13,39,0.00
2012-12-20,52.2,38.5,16.1,7.0,-0.2,-14.4,57,21,6,30.61,30.10,10,1,10,0.00
2012-12-21,56.0,44.4,21.0,-1.2,-7.2,-20.3,29,11,6,30.51,30.21,15,1,17,0.00
2012-12-22,66.3,47.6,23.8,31.8,11.3,-8.1,36,24,11,30.26,29.89,15,1,16,0.00
2012-12-23,64.5,54.3,34.7,35.7,29.8,10.3,56,39,26,29.99,29.80,17,1,18,0.00
2012-12-24,66.3,44.7,19.2,29.7,11.9,5.2,62,31,10,30.05,29.55,20,2,21,0.00
2012-12-25,52.9,39.3,22.9,28.3,16.7,5.8,60,41,18,30.18,29.48,40,9,40,0.00
2012-12-26,53.9,33.5,15.9,16.4,11.2,5.7,66,42,21,30.30,29.91,10,0,10,0.00
2012-12-27,62.0,48.6,18.1,20.6,7.9,1.1,66,22,10,29.98,29.63,16,3,20,0.00
2012-12-28,46.5,39.5,22.9,13.5,5.6,1.8,45,25,16,30.18,29.94,26,6,26,0.00
2012-12-29,49.2,38.6,20.8,12.8,8.9,3.9,56,30,19,30.44,30.23,8,0,11,0.00
2012-12-30,50.5,42.6,36.5,36.7,28.6,13.8,87,60,37,30.22,29.88,16,2,17,0.10
2012-12-31,53.3,46.1,34.4,31.1,21.8,16.8,77,40,24,30.04,29.82,17,3,18,0.00
2013-1-1,48.5,41.9,31.0,20.2,8.0,-3.6,56,27,12,30.24,30.03,12,1,13,0.00